When you browse on this site, cookies collect data to enhance your experience and personalize the content and advertising you see.
Visit our Privacy Policy to learn more. By continuing to use the site, you agree to this use of cookies and data.

Hourly Weather Wien

Today, 10 July, Friday

Time Temperature Precipitation Wind Pressure Humidity
00:00 +21°C° 0 mm 1 mps 743 mmHg 72%
01:00 +21°C° 0 mm 1 mps 743 mmHg 73%
02:00 +20°C° 0 mm 1 mps 743 mmHg 75%
03:00 +20°C° 0 mm 1 mps 743 mmHg 76%
04:00 +18°C° 0 mm 0 mps 743 mmHg 77%
05:00 +21°C° 0 mm 1 mps 743 mmHg 74%
06:00 +22°C° 0 mm 1 mps 743 mmHg 70%
07:00 +24°C° 0 mm 1 mps 743 mmHg 66%
08:00 +26°C° 0 mm 2 mps 743 mmHg 61%
09:00 +28°C° 0 mm 3 mps 743 mmHg 56%
10:00 +29°C° 0 mm 3 mps 743 mmHg 52%
11:00 +32°C° 0 mm 4 mps 742 mmHg 47%
12:00 +33°C° 0 mm 4 mps 742 mmHg 43%
13:00 +34°C° 0 mm 4 mps 742 mmHg 39%
14:00 +34°C° 0 mm 4 mps 741 mmHg 39%
15:00 +34°C° 0 mm 4 mps 741 mmHg 40%
16:00 +34°C° 0 mm 4 mps 741 mmHg 41%
17:00 +33°C° 0 mm 4 mps 740 mmHg 46%
18:00 +30°C° 0 mm 4 mps 740 mmHg 51%
19:00 +28°C° 0 mm 4 mps 740 mmHg 56%
20:00 +27°C° 0.1 mm 4 mps 741 mmHg 62%
21:00 +25°C° 0.1 mm 4 mps 741 mmHg 69%
22:00 +23°C° 0.1 mm 5 mps 742 mmHg 76%
23:00 +22°C° 0.1 mm 4 mps 742 mmHg 79%

Tomorrow, 11 July, Saturday

Time Temperature Precipitation Wind Pressure Humidity
00:00 +21°C° 0.1 mm 4 mps 743 mmHg 81%
01:00 +21°C° 0.1 mm 3 mps 743 mmHg 84%
02:00 +20°C° 0 mm 3 mps 743 mmHg 85%
03:00 +20°C° 0 mm 3 mps 743 mmHg 85%
04:00 +19°C° 0 mm 3 mps 743 mmHg 85%
05:00 +20°C° 0 mm 3 mps 743 mmHg 83%
06:00 +20°C° 0 mm 3 mps 743 mmHg 81%
07:00 +20°C° 0 mm 4 mps 743 mmHg 79%
08:00 +20°C° 0.7 mm 4 mps 744 mmHg 81%
09:00 +19°C° 0.7 mm 4 mps 744 mmHg 82%
10:00 +19°C° 0.7 mm 5 mps 745 mmHg 84%
11:00 +17°C° 0.6 mm 5 mps 745 mmHg 85%
12:00 +17°C° 0.6 mm 5 mps 745 mmHg 86%
13:00 +16°C° 0.6 mm 5 mps 746 mmHg 87%
14:00 +16°C° 0.5 mm 5 mps 746 mmHg 86%
15:00 +17°C° 0.5 mm 4 mps 746 mmHg 86%
16:00 +17°C° 0.5 mm 4 mps 746 mmHg 86%
17:00 +16°C° 1 mm 3 mps 746 mmHg 87%
18:00 +16°C° 1 mm 3 mps 746 mmHg 88%
19:00 +16°C° 1 mm 3 mps 747 mmHg 89%
20:00 +14°C° 0.2 mm 3 mps 747 mmHg 89%
21:00 +14°C° 0.2 mm 3 mps 747 mmHg 88%
22:00 +14°C° 0.2 mm 3 mps 748 mmHg 88%
23:00 +14°C° 0 mm 3 mps 748 mmHg 87%

Day after tomorrow, 12 July, Sunday

Time Temperature Precipitation Wind Pressure Humidity
00:00 +13°C° 0 mm 3 mps 748 mmHg 87%
01:00 +14°C° 0 mm 2 mps 748 mmHg 86%
02:00 +14°C° 0 mm 2 mps 748 mmHg 88%
03:00 +13°C° 0 mm 2 mps 748 mmHg 89%
04:00 +13°C° 0 mm 2 mps 748 mmHg 91%
05:00 +13°C° 0 mm 3 mps 748 mmHg 85%
06:00 +14°C° 0 mm 3 mps 748 mmHg 80%
07:00 +15°C° 0 mm 4 mps 748 mmHg 75%
08:00 +17°C° 0 mm 4 mps 749 mmHg 67%
09:00 +19°C° 0 mm 4 mps 749 mmHg 59%
10:00 +20°C° 0 mm 4 mps 749 mmHg 50%
11:00 +21°C° 0 mm 4 mps 749 mmHg 48%
12:00 +22°C° 0 mm 4 mps 749 mmHg 46%
13:00 +22°C° 0 mm 4 mps 749 mmHg 45%
14:00 +22°C° 0 mm 4 mps 749 mmHg 45%
15:00 +22°C° 0 mm 4 mps 748 mmHg 45%
16:00 +22°C° 0 mm 4 mps 748 mmHg 45%
17:00 +21°C° 0 mm 3 mps 748 mmHg 51%
18:00 +20°C° 0 mm 3 mps 748 mmHg 57%
19:00 +19°C° 0 mm 2 mps 748 mmHg 63%
20:00 +18°C° 0 mm 2 mps 749 mmHg 66%
21:00 +17°C° 0 mm 2 mps 749 mmHg 70%
22:00 +16°C° 0 mm 1 mps 749 mmHg 73%
23:00 +15°C° 0 mm 1 mps 749 mmHg 75%

13 July, Monday

Time Temperature Precipitation Wind Pressure Humidity
00:00 +15°C° 0 mm 1 mps 749 mmHg 77%
01:00 +14°C° 0 mm 1 mps 749 mmHg 79%
02:00 +14°C° 0 mm 1 mps 749 mmHg 81%
03:00 +13°C° 0 mm 1 mps 749 mmHg 83%
04:00 +13°C° 0 mm 2 mps 749 mmHg 84%
05:00 +14°C° 0 mm 2 mps 749 mmHg 80%
06:00 +15°C° 0 mm 2 mps 749 mmHg 75%
07:00 +17°C° 0 mm 2 mps 749 mmHg 70%
08:00 +18°C° 0 mm 2 mps 748 mmHg 64%
09:00 +20°C° 0 mm 2 mps 748 mmHg 57%
10:00 +21°C° 0 mm 2 mps 748 mmHg 51%
11:00 +23°C° 0 mm 2 mps 748 mmHg 48%
12:00 +24°C° 0 mm 2 mps 748 mmHg 44%
13:00 +25°C° 0 mm 2 mps 747 mmHg 41%
14:00 +25°C° 0 mm 3 mps 747 mmHg 42%
15:00 +24°C° 0 mm 3 mps 746 mmHg 43%
16:00 +24°C° 0 mm 3 mps 746 mmHg 43%
17:00 +22°C° 0 mm 3 mps 746 mmHg 50%
18:00 +21°C° 0 mm 2 mps 746 mmHg 56%
19:00 +20°C° 0 mm 2 mps 746 mmHg 62%
20:00 +19°C° 0 mm 2 mps 746 mmHg 64%
21:00 +18°C° 0 mm 1 mps 746 mmHg 66%
22:00 +16°C° 0 mm 1 mps 746 mmHg 68%
23:00 +16°C° 0 mm 1 mps 746 mmHg 71%

14 July, Tuesday

Time Temperature Precipitation Wind Pressure Humidity
00:00 +15°C° 0 mm 1 mps 746 mmHg 73%
01:00 +15°C° 0 mm 1 mps 746 mmHg 76%
02:00 +14°C° 0 mm 1 mps 746 mmHg 77%
03:00 +14°C° 0 mm 1 mps 746 mmHg 79%
04:00 +13°C° 0 mm 1 mps 745 mmHg 81%
05:00 +15°C° 0 mm 1 mps 745 mmHg 76%
06:00 +16°C° 0 mm 1 mps 745 mmHg 71%
07:00 +18°C° 0 mm 1 mps 745 mmHg 67%
08:00 +20°C° 0 mm 1 mps 745 mmHg 61%
09:00 +20°C° 0 mm 2 mps 745 mmHg 55%
10:00 +23°C° 0 mm 2 mps 745 mmHg 50%
11:00 +24°C° 0 mm 2 mps 745 mmHg 47%
12:00 +25°C° 0 mm 2 mps 744 mmHg 44%
13:00 +26°C° 0 mm 2 mps 744 mmHg 41%
14:00 +26°C° 0 mm 2 mps 744 mmHg 42%
15:00 +26°C° 0 mm 3 mps 743 mmHg 42%
16:00 +26°C° 0 mm 3 mps 743 mmHg 43%
17:00 +25°C° 0 mm 3 mps 743 mmHg 47%
18:00 +23°C° 0 mm 2 mps 743 mmHg 52%
19:00 +21°C° 0 mm 2 mps 743 mmHg 57%
20:00 +20°C° 0 mm 2 mps 743 mmHg 58%
21:00 +19°C° 0 mm 2 mps 743 mmHg 59%
22:00 +18°C° 0 mm 2 mps 743 mmHg 60%
23:00 +18°C° 0 mm 2 mps 743 mmHg 63%

15 July, Wednesday

Time Temperature Precipitation Wind Pressure Humidity
00:00 +18°C° 0 mm 1 mps 743 mmHg 65%
01:00 +18°C° 0 mm 1 mps 743 mmHg 67%
02:00 +16°C° 0 mm 1 mps 743 mmHg 70%
03:00 +16°C° 0 mm 1 mps 743 mmHg 72%
04:00 +16°C° 0 mm 1 mps 743 mmHg 74%
05:00 +18°C° 0 mm 1 mps 743 mmHg 72%
06:00 +19°C° 0 mm 1 mps 743 mmHg 70%
07:00 +20°C° 0 mm 1 mps 743 mmHg 68%
08:00 +20°C° 0 mm 2 mps 743 mmHg 64%
09:00 +21°C° 0 mm 2 mps 743 mmHg 61%
10:00 +24°C° 0 mm 2 mps 744 mmHg 57%
11:00 +25°C° 0 mm 2 mps 743 mmHg 54%
12:00 +26°C° 0 mm 3 mps 743 mmHg 50%
13:00 +27°C° 0 mm 3 mps 743 mmHg 47%
14:00 +27°C° 0 mm 3 mps 743 mmHg 48%
15:00 +27°C° 0 mm 3 mps 743 mmHg 50%
16:00 +26°C° 0 mm 3 mps 742 mmHg 51%
17:00 +25°C° 0 mm 2 mps 742 mmHg 55%
18:00 +25°C° 0 mm 2 mps 742 mmHg 59%
19:00 +24°C° 0 mm 1 mps 743 mmHg 63%
20:00 +23°C° 0 mm 1 mps 743 mmHg 66%
21:00 +21°C° 0 mm 1 mps 743 mmHg 69%
22:00 +20°C° 0 mm 1 mps 743 mmHg 72%
23:00 +20°C° 0 mm 1 mps 743 mmHg 73%
Show more